Tracking 26544 objects as of 9-Dec-2022
HD Live streaming from Space Station
objects crossing your sky now

STARLINK-5115

Track STARLINK-5115 now!
10-day predictions
STARLINK-5115 is classified as:


NORAD ID: 53989
Int'l Code: 2022-125AB
Perigee: 545.0 km
Apogee: 547.0 km
Inclination: 53.2 °
Period: 95.4 minutes
Semi major axis: 6916 km
RCS: Unknown
Launch date: October 5, 2022
Source: United States (US)
Launch site: AIR FORCE WESTERN TEST RANGE (AFWTR)
aabbcc
Your satellite tracking list
Your tracking list is empty




NASA's NSSDC Master Catalog

Two Line Element Set (TLE):
1 53989U 22125AB  22342.91668981 -.00393784  00000-0 -25910-1 0  9991
2 53989  53.2173 141.8713 0001398  56.3655 113.6993 15.09130297 10362
Source of the keplerian elements: AFSPC